Location: Unspecified
(37.6544°N, 0.0000°E)
Time: 20:53:10
(UTC+00:00)

SL-16 DEB - Visible Passes

Search period start: 04 April 2026 00:00
Search period end: 14 April 2026 00:00
Orbit: 821 x 945 km, 70.8° (Epoch: 24 March)

Date Brightness Start Highest point End Pass type
(mag) Time Alt. Az. Time Alt. Az. Time Alt. Az.
4 Apr ? 00:37:21 10° NNE 00:38:20 13° NNE 00:38:20 13° NNE visible
4 Apr ? 02:20:46 10° NNW 02:20:59 11° NNW 02:20:59 11° NNW visible
5 Apr ? 00:34:21 10° N 00:35:23 14° NNE 00:35:23 14° NNE visible
6 Apr ? 00:31:27 10° N 00:32:31 14° NNE 00:32:31 14° NNE visible
7 Apr ? 00:28:36 10° N 00:29:41 15° N 00:29:41 15° N visible
8 Apr ? 00:25:46 10° N 00:26:53 15° N 00:26:53 15° N visible
9 Apr ? 00:23:00 10° N 00:24:07 16° N 00:24:07 16° N visible
10 Apr ? 00:20:14 10° N 00:21:23 16° N 00:21:23 16° N visible
11 Apr ? 00:17:31 10° NNW 00:18:40 16° N 00:18:40 16° N visible
12 Apr ? 00:14:49 10° NNW 00:16:00 17° NNW 00:16:00 17° NNW visible
12 Apr ? 22:29:49 10° NNE 22:30:40 11° NNE 22:30:40 11° NNE visible
13 Apr ? 00:12:09 10° NNW 00:13:20 17° NNW 00:13:20 17° NNW visible
13 Apr ? 22:26:31 10° NNE 22:28:01 13° NNE 22:28:01 13° NNE visible
